Archiv-/Tagesdaten

--Timestamp---	Temp	Chill	HIndex	Humid	Dewpt	 Wind 	HiWind	WindDir	Rain 	Barom	Solar	 ET  	 UV 
--------------	----	-----	------	-----	-----	------	------	-------	-----	-----	-----	-----	----
20260507 00:00	10.9	10.9	10.9	82	8.0	8	23	202	0.0	1008.5	0	0.025	0.0
20260507 00:05	10.9	10.9	10.9	82	8.0	8	18	225	0.0	1008.5	0	0.000	0.0
20260507 00:10	10.9	10.9	10.9	82	8.0	8	18	202	0.0	1008.6	0	0.000	0.0
20260507 00:15	11.1	11.1	11.1	81	7.9	10	19	202	0.0	1008.5	0	0.000	0.0
20260507 00:20	11.1	11.1	11.1	81	7.9	8	14	225	0.0	1008.5	0	0.000	0.0
20260507 00:25	11.1	11.1	11.1	81	7.9	6	14	225	0.0	1008.6	0	0.000	0.0
20260507 00:30	11.1	11.1	11.1	81	7.9	6	16	225	0.0	1008.6	0	0.000	0.0
20260507 00:35	11.1	11.1	11.1	81	8.0	10	21	225	0.0	1008.6	0	0.000	0.0
20260507 00:40	11.2	11.2	11.2	81	8.0	10	21	202	0.0	1008.6	0	0.000	0.0
20260507 00:45	11.2	11.2	11.2	81	8.0	8	18	202	0.0	1008.7	0	0.000	0.0
20260507 00:50	11.2	11.2	11.2	81	8.0	8	16	202	0.0	1008.7	0	0.000	0.0
20260507 00:55	11.2	11.2	11.2	81	8.0	10	23	202	0.0	1008.7	0	0.000	0.0
20260507 01:00	11.2	11.2	11.2	81	8.0	10	23	225	0.0	1008.7	0	0.025	0.0
20260507 01:05	11.1	11.1	11.1	81	8.0	8	18	225	0.0	1008.5	0	0.000	0.0
20260507 01:10	11.1	11.1	11.1	81	7.9	8	18	202	0.0	1008.6	0	0.000	0.0
20260507 01:15	10.9	10.9	10.9	82	8.0	6	16	225	0.0	1008.6	0	0.000	0.0
20260507 01:20	10.9	10.9	10.9	82	7.9	6	14	225	0.0	1008.6	0	0.000	0.0
20260507 01:25	10.9	10.9	10.9	82	7.9	6	18	225	0.0	1008.6	0	0.000	0.0
20260507 01:30	10.9	10.9	10.9	82	7.9	8	19	225	0.0	1008.6	0	0.000	0.0
20260507 01:35	10.9	10.9	10.9	81	7.8	8	19	225	0.0	1008.6	0	0.000	0.0
20260507 01:40	10.9	10.9	10.9	81	7.8	8	16	225	0.0	1008.6	0	0.000	0.0
20260507 01:45	10.9	10.9	10.9	81	7.8	10	23	225	0.0	1008.6	0	0.000	0.0
20260507 01:50	10.9	10.9	10.9	81	7.8	10	21	225	0.0	1008.6	0	0.000	0.0
20260507 01:55	10.9	10.9	10.9	80	7.6	11	26	225	0.0	1008.6	0	0.000	0.0
20260507 02:00	10.9	10.9	10.9	80	7.6	10	18	202	0.0	1008.7	0	0.025	0.0
20260507 02:05	10.9	10.9	10.9	80	7.6	8	21	225	0.0	1008.6	0	0.000	0.0
20260507 02:10	10.9	10.9	10.9	80	7.6	6	19	202	0.0	1008.6	0	0.000	0.0
20260507 02:15	10.9	10.9	10.9	81	7.8	8	16	202	0.0	1008.5	0	0.000	0.0
20260507 02:20	10.9	10.9	10.9	81	7.8	8	18	202	0.0	1008.5	0	0.000	0.0
20260507 02:25	10.8	10.8	10.8	81	7.7	8	19	225	0.0	1008.6	0	0.000	0.0
20260507 02:30	10.8	10.8	10.8	81	7.6	6	16	202	0.0	1008.6	0	0.000	0.0
20260507 02:35	10.7	10.7	10.7	81	7.5	5	13	202	0.0	1008.6	0	0.000	0.0
20260507 02:40	10.6	10.6	10.6	81	7.5	5	11	225	0.0	1008.6	0	0.000	0.0
20260507 02:45	10.5	10.5	10.5	82	7.6	5	11	202	0.0	1008.7	0	0.000	0.0
20260507 02:50	10.4	10.4	10.4	82	7.4	3	6	202	0.0	1008.7	0	0.000	0.0
20260507 02:55	10.3	10.3	10.3	83	7.5	2	8	225	0.0	1008.8	0	0.000	0.0
20260507 03:00	10.2	10.2	10.2	83	7.4	3	6	202	0.0	1008.8	0	0.025	0.0
20260507 03:05	10.0	10.0	10.0	83	7.2	2	6	225	0.0	1008.9	0	0.000	0.0
20260507 03:10	9.9	9.9	9.9	84	7.4	2	5	225	0.0	1008.9	0	0.000	0.0
20260507 03:15	9.9	9.9	9.9	84	7.3	2	5	202	0.0	1008.9	0	0.000	0.0
20260507 03:20	9.8	9.8	9.8	84	7.2	2	6	180	0.0	1008.8	0	0.000	0.0
20260507 03:25	9.7	9.7	9.7	84	7.1	2	6	202	0.0	1008.9	0	0.000	0.0
20260507 03:30	9.6	9.6	9.6	84	7.0	2	5	202	0.0	1009.0	0	0.000	0.0
20260507 03:35	9.6	9.6	9.6	84	7.0	3	11	225	0.0	1009.0	0	0.000	0.0
20260507 03:40	9.6	9.6	9.6	84	7.0	5	13	225	0.0	1008.9	0	0.000	0.0
20260507 03:45	9.6	9.6	9.6	84	7.0	3	10	225	0.0	1009.0	0	0.000	0.0
20260507 03:50	9.6	9.6	9.6	84	7.0	5	10	225	0.0	1009.0	0	0.000	0.0
20260507 03:55	9.6	9.6	9.6	84	7.0	5	8	248	0.0	1009.1	0	0.000	0.0
20260507 04:00	9.5	8.8	9.5	85	7.1	6	10	248	0.0	1009.1	0	0.025	0.0
20260507 04:05	9.6	8.9	9.6	84	7.0	6	14	248	0.0	1009.5	0	0.000	0.0
20260507 04:10	9.7	8.7	9.7	84	7.1	8	11	248	0.0	1009.5	0	0.000	0.0
20260507 04:15	9.8	9.1	9.8	84	7.2	6	13	248	0.0	1009.6	0	0.000	0.0
20260507 04:20	9.8	9.8	9.8	84	7.2	5	13	248	0.0	1009.6	0	0.000	0.0
20260507 04:25	9.8	9.8	9.8	84	7.3	3	10	225	0.0	1009.6	0	0.000	0.0
20260507 04:30	9.8	9.8	9.8	84	7.3	3	8	225	0.0	1009.6	0	0.000	0.0
20260507 04:35	9.9	9.9	9.9	84	7.3	5	8	248	0.0	1009.7	0	0.000	0.0
20260507 04:40	9.9	9.9	9.9	84	7.3	5	10	225	0.0	1009.7	0	0.000	0.0
20260507 04:45	9.9	9.2	9.9	83	7.1	6	11	225	0.0	1009.7	0	0.000	0.0
20260507 04:50	9.8	9.2	9.8	83	7.1	6	13	225	0.0	1009.8	0	0.000	0.0
20260507 04:55	9.8	9.8	9.8	83	7.0	5	10	225	0.0	1009.8	0	0.000	0.0
20260507 05:00	9.7	9.7	9.7	83	6.9	5	11	225	0.0	1009.8	0	0.025	0.0
20260507 05:05	9.6	9.6	9.6	84	7.0	5	10	225	0.0	1010.1	0	0.000	0.0
20260507 05:10	9.6	8.9	9.6	84	7.0	6	16	225	0.0	1010.1	0	0.000	0.0
20260507 05:15	9.6	8.9	9.6	83	6.8	6	11	225	0.0	1010.2	0	0.000	0.0
20260507 05:20	9.6	9.6	9.6	84	7.0	5	10	225	0.0	1010.2	0	0.000	0.0
20260507 05:25	9.6	9.6	9.6	84	7.0	5	8	225	0.0	1010.2	0	0.000	0.0
20260507 05:30	9.6	9.6	9.6	84	7.0	3	8	225	0.0	1010.1	0	0.000	0.0
20260507 05:35	9.6	9.6	9.6	84	7.0	3	6	225	0.0	1010.1	0	0.000	0.0
20260507 05:40	9.6	9.6	9.6	84	7.0	2	8	225	0.0	1010.1	0	0.000	0.0
20260507 05:45	9.5	9.5	9.5	84	6.9	2	5	225	0.0	1010.1	0	0.000	0.0
20260507 05:50	9.5	9.5	9.5	84	6.9	2	5	225	0.0	1010.1	0	0.000	0.0
20260507 05:55	9.5	9.5	9.5	84	6.9	2	5	225	0.0	1010.1	4	0.000	0.0
20260507 06:00	9.6	9.6	9.6	84	7.0	2	5	225	0.0	1010.2	10	0.000	0.0
20260507 06:05	9.7	9.7	9.7	84	7.1	3	6	202	0.0	1010.2	11	0.000	0.0
20260507 06:10	9.7	9.7	9.7	84	7.1	2	6	180	0.0	1010.2	13	0.000	0.0
20260507 06:15	9.8	9.8	9.8	84	7.2	2	8	225	0.0	1010.1	15	0.000	0.0
20260507 06:20	9.9	9.9	9.9	84	7.3	2	6	270	0.0	1010.2	16	0.000	0.0
20260507 06:25	10.0	10.0	10.0	84	7.4	5	11	202	0.0	1010.2	16	0.000	0.0
20260507 06:30	10.1	10.1	10.1	84	7.5	5	16	225	0.0	1010.3	17	0.000	0.0
20260507 06:35	10.3	10.3	10.3	83	7.5	5	16	225	0.0	1010.2	19	0.000	0.0
20260507 06:40	10.3	10.3	10.3	83	7.6	3	10	292	0.0	1010.2	21	0.000	0.0
20260507 06:45	10.4	10.4	10.4	83	7.6	5	8	270	0.0	1010.3	23	0.000	0.0
20260507 06:50	10.4	10.4	10.4	83	7.7	5	16	225	0.0	1010.4	26	0.000	0.0
20260507 06:55	10.4	10.4	10.4	83	7.7	5	13	225	0.0	1010.6	34	0.000	0.0
20260507 07:00	10.5	10.5	10.5	83	7.7	5	10	202	0.0	1010.6	42	0.025	0.0
20260507 07:05	10.6	10.6	10.6	83	7.8	5	11	202	0.0	1010.7	37	0.000	0.0
20260507 07:10	10.7	10.7	10.7	83	7.9	5	18	225	0.0	1010.8	33	0.000	0.0
20260507 07:15	10.7	10.7	10.7	83	7.9	6	11	225	0.0	1010.8	35	0.000	0.0
20260507 07:20	10.8	10.8	10.8	82	7.8	6	13	225	0.0	1010.9	36	0.000	0.0
20260507 07:25	10.8	10.8	10.8	82	7.8	8	18	225	0.0	1010.8	35	0.000	0.0
20260507 07:30	10.8	10.8	10.8	82	7.9	6	11	225	0.0	1010.9	41	0.000	0.0
20260507 07:35	10.9	10.9	10.9	82	7.9	8	16	225	0.0	1010.9	50	0.000	0.0
20260507 07:40	10.9	10.9	10.9	82	7.9	8	14	225	0.0	1010.9	68	0.000	0.0
20260507 07:45	11.0	11.0	11.0	82	8.0	6	14	225	0.0	1011.0	88	0.000	0.0
20260507 07:50	11.1	11.1	11.1	82	8.1	6	14	225	0.0	1011.0	117	0.000	0.0
20260507 07:55	11.2	11.2	11.2	82	8.2	13	26	225	0.0	1011.1	127	0.000	0.0
20260507 08:00	11.2	11.2	11.2	81	8.1	10	19	225	0.0	1011.1	113	0.051	0.0
20260507 08:05	11.3	11.3	11.3	81	8.1	11	23	225	0.0	1011.2	114	0.000	0.0
20260507 08:10	11.3	11.3	11.3	80	8.0	11	21	225	0.0	1011.3	148	0.000	0.1
20260507 08:15	11.4	11.4	11.4	80	8.1	10	23	248	0.0	1011.3	95	0.000	0.0
20260507 08:20	11.6	11.6	11.6	79	8.0	11	23	248	0.0	1011.3	123	0.000	0.1
20260507 08:25	11.6	11.6	11.6	78	7.9	11	23	225	0.0	1011.4	116	0.000	0.0
20260507 08:30	11.7	11.7	11.7	78	8.0	13	21	248	0.0	1011.4	119	0.000	0.0
20260507 08:35	11.8	11.8	11.8	77	7.9	11	26	225	0.0	1011.5	123	0.000	0.4
20260507 08:40	11.8	11.8	11.8	77	7.9	14	26	248	0.0	1011.5	171	0.000	0.5
20260507 08:45	12.0	12.0	12.0	76	7.9	16	27	248	0.0	1011.4	178	0.000	0.6
20260507 08:50	12.1	12.1	12.1	76	8.0	14	24	248	0.0	1011.4	198	0.000	0.7
20260507 08:55	12.3	12.3	12.3	76	8.2	11	23	225	0.0	1011.4	410	0.000	0.8
20260507 09:00	12.7	12.7	12.7	76	8.5	11	24	225	0.0	1011.5	507	0.127	0.9
20260507 09:05	13.0	13.0	13.0	74	8.5	14	26	248	0.0	1011.6	533	0.000	1.0
20260507 09:10	13.0	13.0	13.0	74	8.5	16	29	248	0.0	1011.5	475	0.000	1.1
20260507 09:15	13.2	13.2	13.2	74	8.7	13	23	270	0.0	1011.6	425	0.000	0.9
20260507 09:20	13.1	13.1	13.1	73	8.4	16	27	270	0.0	1011.7	195	0.000	0.9
20260507 09:25	12.9	12.9	12.9	73	8.2	16	26	248	0.0	1011.7	183	0.000	0.8
20260507 09:30	12.9	12.9	12.9	73	8.2	14	26	248	0.0	1011.8	178	0.000	0.7
20260507 09:35	12.9	12.9	12.9	73	8.2	10	21	248	0.0	1011.8	196	0.000	0.8
20260507 09:40	12.9	12.9	12.9	73	8.2	14	24	225	0.0	1011.8	213	0.000	0.8
20260507 09:45	13.0	13.0	13.0	73	8.3	14	27	248	0.0	1011.9	205	0.000	0.8
20260507 09:50	13.1	13.1	13.1	73	8.3	13	26	248	0.0	1011.9	191	0.000	0.8
20260507 09:55	13.1	13.1	13.1	74	8.5	13	21	248	0.0	1011.9	231	0.000	1.0
20260507 10:00	13.2	13.2	13.2	72	8.3	13	26	248	0.0	1011.9	461	0.178	1.1
20260507 10:05	13.2	13.2	13.2	74	8.6	10	19	270	0.0	1011.8	203	0.000	1.0
20260507 10:10	13.4	13.4	13.4	73	8.6	10	19	248	0.0	1011.8	265	0.000	1.0
20260507 10:15	13.4	13.4	13.4	72	8.5	10	18	248	0.0	1011.8	201	0.000	1.0
20260507 10:20	13.4	13.4	13.4	71	8.3	13	26	225	0.0	1011.8	215	0.000	1.1
20260507 10:25	13.7	13.7	13.7	71	8.5	14	29	225	0.0	1011.7	288	0.000	1.0
20260507 10:30	13.8	13.8	13.8	70	8.5	18	31	248	0.0	1011.9	173	0.000	0.6
20260507 10:35	13.7	13.7	13.7	71	8.5	14	26	248	0.0	1011.9	130	0.000	0.4



Please note the license to use and transfer of this data:
https://creativecommons.org/licenses/by-nc-sa/3.0/deed.en

Bitte beachten sie die Lizenz zur Verwertung und Weitergabe der Daten:
https://creativecommons.org/licenses/by-nc-sa/3.0/deed.de

zurück zur Übersicht der Archivdaten (Monats und Tagesdaten)

Cookies helfen bei der Bereitstellung von Inhalten. Diese Website verwendet Cookies. Mit der Nutzung der Website erklären Sie sich damit einverstanden, dass Cookies auf Ihrem Computer gespeichert werden. Außerdem bestätigen Sie, dass Sie unsere Datenschutzerklärung gelesen und verstanden haben. Wenn Sie nicht einverstanden sind, verlassen Sie die Website.Weitere Information